Time,TemperatureF,DewpointF,PressureIn,WindDirection,WindDirectionDegrees,WindSpeedMPH,WindSpeedGustMPH,Humidity,HourlyPrecipIn,Conditions,Clouds,dailyrainin,SoftwareType,DateUTC
2013-03-04 00:01:00,59.5,42.4,29.92,East,90,8.0,8.0,53,0.00,,,0.00,meteohub,2013-03-04 06:01:00,
2013-03-04 00:06:00,59.5,42.4,29.92,East,90,8.0,8.0,53,0.00,,,0.00,meteohub,2013-03-04 06:06:00,
2013-03-04 00:11:00,59.5,42.4,29.92,NE,45,2.0,8.0,53,0.00,,,0.00,meteohub,2013-03-04 06:11:00,
2013-03-04 00:16:00,59.5,42.4,29.91,East,90,11.0,11.0,53,0.00,,,0.00,meteohub,2013-03-04 06:16:00,
2013-03-04 00:21:00,59.7,42.1,29.91,NE,45,11.0,11.0,52,0.00,,,0.00,meteohub,2013-03-04 06:21:00,
2013-03-04 00:26:00,59.7,42.1,29.91,East,90,11.0,12.0,52,0.00,,,0.00,meteohub,2013-03-04 06:26:00,
2013-03-04 00:31:00,59.9,42.3,29.90,NE,45,9.0,12.0,52,0.00,,,0.00,meteohub,2013-03-04 06:31:00,
2013-03-04 00:36:00,60.1,42.4,29.91,East,90,21.0,21.0,52,0.00,,,0.00,meteohub,2013-03-04 06:36:00,
2013-03-04 00:41:00,60.1,42.4,29.90,SE,135,11.0,21.0,52,0.00,,,0.00,meteohub,2013-03-04 06:41:00,
2013-03-04 00:46:00,59.9,42.3,29.90,South,180,15.0,21.0,52,0.00,,,0.00,meteohub,2013-03-04 06:46:00,
2013-03-04 00:51:00,59.9,42.3,29.91,East,90,6.0,21.0,52,0.00,,,0.00,meteohub,2013-03-04 06:51:00,
2013-03-04 00:56:00,59.7,42.6,29.90,West,270,8.0,19.0,53,0.00,,,0.00,meteohub,2013-03-04 06:56:00,
2013-03-04 01:01:00,59.7,42.6,29.91,NE,45,8.0,19.0,53,0.00,,,0.00,meteohub,2013-03-04 07:01:00,
2013-03-04 01:06:00,59.9,42.8,29.91,SE,135,6.0,15.0,53,0.00,,,0.00,meteohub,2013-03-04 07:06:00,
2013-03-04 01:11:00,59.5,42.4,29.91,NE,45,11.0,15.0,53,0.00,,,0.00,meteohub,2013-03-04 07:11:00,
2013-03-04 01:16:00,59.7,42.6,29.92,NE,45,5.0,15.0,53,0.00,,,0.00,meteohub,2013-03-04 07:16:00,
2013-03-04 01:21:00,59.5,42.4,29.91,East,90,6.0,15.0,53,0.00,,,0.00,meteohub,2013-03-04 07:21:00,
2013-03-04 01:26:00,59.5,42.4,29.91,NE,45,6.0,15.0,53,0.00,,,0.00,meteohub,2013-03-04 07:26:00,
2013-03-04 01:31:00,59.2,42.1,29.91,NE,45,4.0,13.0,53,0.00,,,0.00,meteohub,2013-03-04 07:31:00,
2013-03-04 01:36:00,59.2,42.6,29.91,NNW,338,5.0,13.0,54,0.00,,,0.00,meteohub,2013-03-04 07:36:00,
2013-03-04 01:42:00,59.4,42.3,29.91,NE,45,5.0,10.0,53,0.00,,,0.00,meteohub,2013-03-04 07:42:00,
2013-03-04 01:47:00,59.2,42.6,29.91,NW,315,3.0,10.0,54,0.00,,,0.00,meteohub,2013-03-04 07:47:00,
2013-03-04 01:52:00,59.0,42.4,29.90,East,90,4.0,12.0,54,0.00,,,0.00,meteohub,2013-03-04 07:52:00,
2013-03-04 01:57:00,58.6,42.4,29.91,SE,135,3.0,12.0,55,0.00,,,0.00,meteohub,2013-03-04 07:57:00,
2013-03-04 02:02:00,58.5,42.4,29.90,SW,225,2.0,10.0,55,0.00,,,0.00,meteohub,2013-03-04 08:02:00,
2013-03-04 02:07:00,58.5,42.4,29.90,SW,225,2.0,8.0,55,0.00,,,0.00,meteohub,2013-03-04 08:07:00,
2013-03-04 02:12:00,57.9,41.9,29.90,West,270,5.0,7.0,55,0.00,,,0.00,meteohub,2013-03-04 08:12:00,
2013-03-04 02:17:00,57.7,42.1,29.90,SE,135,4.0,5.0,56,0.00,,,0.00,meteohub,2013-03-04 08:17:00,
2013-03-04 02:22:00,57.7,42.1,29.90,NE,45,4.0,5.0,56,0.00,,,0.00,meteohub,2013-03-04 08:22:00,
2013-03-04 02:27:00,57.9,42.3,29.90,NW,315,2.0,7.0,56,0.00,,,0.00,meteohub,2013-03-04 08:27:00,
2013-03-04 02:32:00,57.4,41.9,29.91,SE,135,3.0,7.0,56,0.00,,,0.00,meteohub,2013-03-04 08:32:00,
2013-03-04 02:37:00,57.0,42.4,29.91,NW,315,3.0,7.0,58,0.00,,,0.00,meteohub,2013-03-04 08:37:00,
2013-03-04 02:42:00,56.5,41.9,29.91,SE,135,2.0,4.0,58,0.00,,,0.00,meteohub,2013-03-04 08:42:00,
2013-03-04 02:47:00,56.3,42.6,29.91,ENE,68,7.0,7.0,60,0.00,,,0.00,meteohub,2013-03-04 08:47:00,
2013-03-04 02:52:00,57.2,42.6,29.91,South,180,3.0,11.0,58,0.00,,,0.00,meteohub,2013-03-04 08:52:00,
2013-03-04 02:57:00,57.4,42.8,29.91,NE,45,8.0,11.0,58,0.00,,,0.00,meteohub,2013-03-04 08:57:00,
2013-03-04 03:02:00,57.7,43.0,29.90,East,90,9.0,11.0,58,0.00,,,0.00,meteohub,2013-03-04 09:02:00,
2013-03-04 03:07:00,57.7,43.5,29.90,NE,45,10.0,10.0,59,0.00,,,0.00,meteohub,2013-03-04 09:07:00,
2013-03-04 03:12:00,57.7,43.0,29.90,NE,45,8.0,14.0,58,0.00,,,0.00,meteohub,2013-03-04 09:12:00,
2013-03-04 03:17:00,57.6,43.3,29.89,East,90,4.0,14.0,59,0.00,,,0.00,meteohub,2013-03-04 09:17:00,
2013-03-04 03:22:00,57.4,43.7,29.89,NE,45,5.0,14.0,60,0.00,,,0.00,meteohub,2013-03-04 09:22:00,
2013-03-04 03:27:00,57.6,43.7,29.89,NE,45,9.0,11.0,60,0.00,,,0.00,meteohub,2013-03-04 09:27:00,
2013-03-04 03:32:00,57.4,44.1,29.88,NE,45,14.0,14.0,61,0.00,,,0.00,meteohub,2013-03-04 09:32:00,
2013-03-04 03:37:00,57.6,44.2,29.88,East,90,6.0,14.0,61,0.00,,,0.00,meteohub,2013-03-04 09:37:00,
2013-03-04 03:42:00,57.2,43.9,29.88,ENE,68,3.0,14.0,61,0.00,,,0.00,meteohub,2013-03-04 09:42:00,
2013-03-04 03:47:00,57.0,44.6,29.88,East,90,5.0,14.0,63,0.00,,,0.00,meteohub,2013-03-04 09:47:00,
2013-03-04 03:52:00,56.7,45.0,29.88,West,270,4.0,11.0,65,0.00,,,0.00,meteohub,2013-03-04 09:52:00,
2013-03-04 03:57:00,56.7,45.0,29.88,West,270,4.0,13.0,65,0.00,,,0.00,meteohub,2013-03-04 09:57:00,
2013-03-04 04:02:00,56.7,45.0,29.88,NE,45,4.0,13.0,65,0.00,,,0.00,meteohub,2013-03-04 10:02:00,
2013-03-04 04:07:00,56.3,45.1,29.87,North,0,2.0,13.0,66,0.00,,,0.00,meteohub,2013-03-04 10:07:00,
2013-03-04 04:12:00,56.3,45.5,29.87,East,90,8.0,8.0,67,0.00,,,0.00,meteohub,2013-03-04 10:12:00,
2013-03-04 04:17:00,56.7,45.5,29.87,NW,315,4.0,11.0,66,0.00,,,0.00,meteohub,2013-03-04 10:17:00,
2013-03-04 04:22:00,56.5,45.3,29.87,East,90,4.0,11.0,66,0.00,,,0.00,meteohub,2013-03-04 10:22:00,
2013-03-04 04:27:00,56.5,45.7,29.88,East,90,2.0,11.0,67,0.00,,,0.00,meteohub,2013-03-04 10:27:00,
2013-03-04 04:33:00,56.3,45.5,29.87,North,0,4.0,8.0,67,0.00,,,0.00,meteohub,2013-03-04 10:33:00,
2013-03-04 04:38:00,56.3,45.9,29.87,East,90,4.0,8.0,68,0.00,,,0.00,meteohub,2013-03-04 10:38:00,
2013-03-04 04:43:00,56.5,46.0,29.87,NE,45,3.0,6.0,68,0.00,,,0.00,meteohub,2013-03-04 10:43:00,
2013-03-04 04:48:00,56.5,46.0,29.87,NE,45,13.0,13.0,68,0.00,,,0.00,meteohub,2013-03-04 10:48:00,
2013-03-04 04:53:00,56.7,46.2,29.87,North,0,4.0,13.0,68,0.00,,,0.00,meteohub,2013-03-04 10:53:00,
2013-03-04 04:58:00,56.5,46.4,29.88,NE,45,3.0,13.0,69,0.00,,,0.00,meteohub,2013-03-04 10:58:00,
2013-03-04 05:03:00,56.7,46.6,29.88,East,90,5.0,13.0,69,0.00,,,0.00,meteohub,2013-03-04 11:03:00,
2013-03-04 05:08:00,56.5,46.8,29.87,NE,45,4.0,8.0,70,0.00,,,0.00,meteohub,2013-03-04 11:08:00,
2013-03-04 05:13:00,56.5,46.8,29.87,SE,135,5.0,8.0,70,0.00,,,0.00,meteohub,2013-03-04 11:13:00,
2013-03-04 05:18:00,56.7,46.9,29.87,NE,45,5.0,8.0,70,0.00,,,0.00,meteohub,2013-03-04 11:18:00,
2013-03-04 05:23:00,56.5,47.1,29.87,NNE,23,4.0,7.0,71,0.00,,,0.00,meteohub,2013-03-04 11:23:00,
2013-03-04 05:28:00,56.7,47.7,29.86,NE,45,7.0,7.0,72,0.00,,,0.00,meteohub,2013-03-04 11:28:00,
2013-03-04 05:33:00,56.7,47.7,29.86,NE,45,4.0,11.0,72,0.00,,,0.00,meteohub,2013-03-04 11:33:00,
2013-03-04 05:39:00,56.7,47.7,29.86,East,90,6.0,11.0,72,0.00,,,0.00,meteohub,2013-03-04 11:39:00,
2013-03-04 05:44:00,56.5,47.5,29.86,East,90,8.0,11.0,72,0.00,,,0.00,meteohub,2013-03-04 11:44:00,
2013-03-04 05:49:00,56.5,47.5,29.86,ENE,68,8.0,10.0,72,0.00,,,0.00,meteohub,2013-03-04 11:49:00,
2013-03-04 05:54:00,56.3,47.8,29.87,East,90,3.0,8.0,73,0.00,,,0.00,meteohub,2013-03-04 11:54:00,
2013-03-04 05:59:00,56.3,47.8,29.87,SE,135,2.0,8.0,73,0.00,,,0.00,meteohub,2013-03-04 11:59:00,
2013-03-04 06:04:00,56.5,48.0,29.88,NE,45,2.0,8.0,73,0.00,,,0.00,meteohub,2013-03-04 12:04:00,
2013-03-04 06:09:00,56.1,48.0,29.87,ENE,68,6.0,6.0,74,0.00,,,0.00,meteohub,2013-03-04 12:09:00,
2013-03-04 06:14:00,56.3,48.6,29.88,SE,135,8.0,8.0,75,0.00,,,0.00,meteohub,2013-03-04 12:14:00,
2013-03-04 06:19:00,56.5,48.4,29.88,East,90,5.0,6.0,74,0.00,,,0.00,meteohub,2013-03-04 12:19:00,
2013-03-04 06:24:00,56.5,48.4,29.88,ENE,68,5.0,8.0,74,0.00,,,0.00,meteohub,2013-03-04 12:24:00,
2013-03-04 06:29:00,56.5,48.7,29.88,East,90,3.0,8.0,75,0.00,,,0.00,meteohub,2013-03-04 12:29:00,
2013-03-04 06:34:00,56.3,48.6,29.88,West,270,2.0,8.0,75,0.00,,,0.00,meteohub,2013-03-04 12:34:00,
2013-03-04 06:39:00,55.9,48.2,29.88,NE,45,3.0,7.0,75,0.00,,,0.00,meteohub,2013-03-04 12:39:00,
2013-03-04 06:44:00,55.8,48.0,29.88,West,270,2.0,5.0,75,0.00,,,0.00,meteohub,2013-03-04 12:44:00,
2013-03-04 06:49:00,55.6,47.8,29.88,West,270,2.0,3.0,75,0.00,,,0.00,meteohub,2013-03-04 12:49:00,
2013-03-04 06:54:00,55.2,47.1,29.88,North,0,1.0,3.0,74,0.00,,,0.00,meteohub,2013-03-04 12:54:00,
2013-03-04 06:59:00,55.0,47.3,29.88,East,90,2.0,3.0,75,0.00,,,0.00,meteohub,2013-03-04 12:59:00,
2013-03-04 07:05:00,55.2,48.2,29.88,NE,45,2.0,3.0,77,0.00,,,0.00,meteohub,2013-03-04 13:05:00,
2013-03-04 07:10:00,55.6,48.2,29.88,NW,315,2.0,4.0,76,0.00,,,0.00,meteohub,2013-03-04 13:10:00,
2013-03-04 07:15:00,55.6,47.8,29.88,NW,315,2.0,4.0,75,0.00,,,0.00,meteohub,2013-03-04 13:15:00,
2013-03-04 07:20:00,55.4,47.7,29.89,West,270,3.0,3.0,75,0.00,,,0.00,meteohub,2013-03-04 13:20:00,
2013-03-04 07:25:00,55.2,47.5,29.89,NNW,338,4.0,4.0,75,0.00,,,0.00,meteohub,2013-03-04 13:25:00,
2013-03-04 07:30:00,55.4,48.0,29.89,East,90,2.0,4.0,76,0.00,,,0.00,meteohub,2013-03-04 13:30:00,
2013-03-04 07:35:00,55.4,48.0,29.89,West,270,2.0,4.0,76,0.00,,,0.00,meteohub,2013-03-04 13:35:00,
2013-03-04 07:40:00,55.4,48.0,29.89,NE,45,3.0,4.0,76,0.00,,,0.00,meteohub,2013-03-04 13:40:00,
2013-03-04 07:45:00,55.8,48.4,29.90,West,270,2.0,3.0,76,0.00,,,0.00,meteohub,2013-03-04 13:45:00,
2013-03-04 07:50:00,55.6,47.8,29.90,NE,45,2.0,3.0,75,0.00,,,0.00,meteohub,2013-03-04 13:50:00,
2013-03-04 07:55:00,55.6,47.8,29.90,North,0,1.0,3.0,75,0.00,,,0.00,meteohub,2013-03-04 13:55:00,
2013-03-04 08:00:00,55.6,48.2,29.90,NE,45,2.0,3.0,76,0.00,,,0.00,meteohub,2013-03-04 14:00:00,
2013-03-04 08:05:00,55.6,48.2,29.90,NE,45,2.0,3.0,76,0.00,,,0.00,meteohub,2013-03-04 14:05:00,
2013-03-04 08:10:00,57.2,49.3,29.90,NE,45,2.0,3.0,75,0.00,,,0.00,meteohub,2013-03-04 14:10:00,
2013-03-04 08:15:00,57.9,49.6,29.90,North,0,1.0,2.0,74,0.00,,,0.00,meteohub,2013-03-04 14:15:00,
2013-03-04 08:20:00,58.5,49.8,29.90,NE,45,0.0,2.0,73,0.00,,,0.00,meteohub,2013-03-04 14:20:00,
2013-03-04 08:25:00,59.0,49.6,29.90,East,90,4.0,4.0,71,0.00,,,0.00,meteohub,2013-03-04 14:25:00,
2013-03-04 08:30:00,59.4,49.6,29.90,NE,45,2.0,4.0,70,0.00,,,0.00,meteohub,2013-03-04 14:30:00,
2013-03-04 08:35:00,59.7,49.5,29.90,SE,135,5.0,5.0,69,0.00,,,0.00,meteohub,2013-03-04 14:35:00,
2013-03-04 08:40:00,59.9,49.3,29.90,East,90,4.0,5.0,68,0.00,,,0.00,meteohub,2013-03-04 14:40:00,
2013-03-04 08:46:00,60.1,49.1,29.90,SE,135,4.0,6.0,67,0.00,,,0.00,meteohub,2013-03-04 14:46:00,
2013-03-04 08:51:00,60.6,49.3,29.91,SW,225,1.0,6.0,66,0.00,,,0.00,meteohub,2013-03-04 14:51:00,
2013-03-04 08:56:00,61.0,49.1,29.90,ESE,113,3.0,6.0,65,0.00,,,0.00,meteohub,2013-03-04 14:56:00,
2013-03-04 09:01:00,61.3,49.1,29.90,NE,45,3.0,4.0,64,0.00,,,0.00,meteohub,2013-03-04 15:01:00,
2013-03-04 09:06:00,61.9,49.6,29.90,SE,135,2.0,4.0,64,0.00,,,0.00,meteohub,2013-03-04 15:06:00,
2013-03-04 09:11:00,62.4,49.6,29.90,East,90,4.0,8.0,63,0.00,,,0.00,meteohub,2013-03-04 15:11:00,
2013-03-04 09:16:00,63.0,49.8,29.90,South,180,3.0,8.0,62,0.00,,,0.00,meteohub,2013-03-04 15:16:00,
2013-03-04 09:21:00,63.0,48.9,29.90,NE,45,5.0,8.0,60,0.00,,,0.00,meteohub,2013-03-04 15:21:00,
2013-03-04 09:26:00,63.1,49.5,29.90,East,90,3.0,7.0,61,0.00,,,0.00,meteohub,2013-03-04 15:26:00,
2013-03-04 09:31:00,64.9,49.8,29.90,East,90,4.0,7.0,58,0.00,,,0.00,meteohub,2013-03-04 15:31:00,
2013-03-04 09:36:00,67.1,49.8,29.90,East,90,4.0,7.0,54,0.00,,,0.00,meteohub,2013-03-04 15:36:00,
2013-03-04 09:41:00,67.6,48.9,29.90,East,90,5.0,9.0,51,0.00,,,0.00,meteohub,2013-03-04 15:41:00,
2013-03-04 09:46:00,67.6,49.8,29.90,SE,135,8.0,9.0,53,0.00,,,0.00,meteohub,2013-03-04 15:46:00,
2013-03-04 09:51:00,68.0,48.7,29.90,East,90,6.0,9.0,50,0.00,,,0.00,meteohub,2013-03-04 15:51:00,
2013-03-04 09:56:00,68.4,48.4,29.89,East,90,5.0,9.0,49,0.00,,,0.00,meteohub,2013-03-04 15:56:00,
2013-03-04 10:01:00,68.5,48.6,29.90,SE,135,8.0,9.0,49,0.00,,,0.00,meteohub,2013-03-04 16:01:00,
2013-03-04 10:06:00,68.5,48.6,29.89,SE,135,8.0,8.0,49,0.00,,,0.00,meteohub,2013-03-04 16:06:00,
2013-03-04 10:11:00,69.4,47.8,29.89,ENE,68,9.0,9.0,46,0.00,,,0.00,meteohub,2013-03-04 16:11:00,
2013-03-04 10:16:00,70.3,48.0,29.88,East,90,6.0,9.0,45,0.00,,,0.00,meteohub,2013-03-04 16:16:00,
2013-03-04 10:22:00,71.4,48.4,29.88,NE,45,8.0,10.0,44,0.00,,,0.00,meteohub,2013-03-04 16:22:00,
2013-03-04 10:27:00,72.5,48.0,29.88,East,90,8.0,10.0,42,0.00,,,0.00,meteohub,2013-03-04 16:27:00,
2013-03-04 10:32:00,73.2,48.0,29.88,NE,45,7.0,10.0,41,0.00,,,0.00,meteohub,2013-03-04 16:32:00,
2013-03-04 10:37:00,73.9,47.5,29.88,East,90,8.0,11.0,39,0.00,,,0.00,meteohub,2013-03-04 16:37:00,
2013-03-04 10:42:00,74.5,47.8,29.88,NE,45,7.0,11.0,39,0.00,,,0.00,meteohub,2013-03-04 16:42:00,
2013-03-04 10:47:00,75.0,46.9,29.88,SSW,203,7.0,12.0,37,0.00,,,0.00,meteohub,2013-03-04 16:47:00,
2013-03-04 10:52:00,75.6,46.8,29.87,NE,45,11.0,12.0,36,0.00,,,0.00,meteohub,2013-03-04 16:52:00,
2013-03-04 10:57:00,76.3,46.6,29.87,East,90,8.0,13.0,35,0.00,,,0.00,meteohub,2013-03-04 16:57:00,
2013-03-04 11:02:00,77.2,46.6,29.86,East,90,9.0,14.0,34,0.00,,,0.00,meteohub,2013-03-04 17:02:00,
2013-03-04 11:07:00,77.9,46.4,29.86,SE,135,9.0,14.0,33,0.00,,,0.00,meteohub,2013-03-04 17:07:00,
2013-03-04 11:12:00,78.3,46.8,29.86,SE,135,11.0,13.0,33,0.00,,,0.00,meteohub,2013-03-04 17:12:00,
2013-03-04 11:17:00,79.0,44.1,29.86,East,90,8.0,11.0,29,0.00,,,0.00,meteohub,2013-03-04 17:17:00,
2013-03-04 11:22:00,79.2,45.1,29.86,NE,45,7.0,11.0,30,0.00,,,0.00,meteohub,2013-03-04 17:22:00,
2013-03-04 11:27:00,79.9,45.7,29.86,East,90,8.0,11.0,30,0.00,,,0.00,meteohub,2013-03-04 17:27:00,
2013-03-04 11:32:00,80.2,45.1,29.86,SE,135,9.0,11.0,29,0.00,,,0.00,meteohub,2013-03-04 17:32:00,
2013-03-04 11:37:00,80.2,44.2,29.86,East,90,5.0,11.0,28,0.00,,,0.00,meteohub,2013-03-04 17:37:00,
2013-03-04 11:42:00,81.0,43.9,29.85,SE,135,10.0,11.0,27,0.00,,,0.00,meteohub,2013-03-04 17:42:00,
2013-03-04 11:48:00,81.0,43.9,29.85,East,90,7.0,11.0,27,0.00,,,0.00,meteohub,2013-03-04 17:48:00,
2013-03-04 11:53:00,81.5,43.3,29.84,NE,45,11.0,11.0,26,0.00,,,0.00,meteohub,2013-03-04 17:53:00,
2013-03-04 11:58:00,82.4,45.1,29.84,East,90,8.0,12.0,27,0.00,,,0.00,meteohub,2013-03-04 17:58:00,
2013-03-04 12:03:00,82.6,45.1,29.84,East,90,9.0,12.0,27,0.00,,,0.00,meteohub,2013-03-04 18:03:00,
2013-03-04 12:08:00,83.1,45.7,29.84,East,90,9.0,12.0,27,0.00,,,0.00,meteohub,2013-03-04 18:08:00,
2013-03-04 12:13:00,84.4,44.8,29.83,NNW,338,5.0,11.0,25,0.00,,,0.00,meteohub,2013-03-04 18:13:00,
2013-03-04 12:18:00,84.7,45.0,29.83,NW,315,7.0,9.0,25,0.00,,,0.00,meteohub,2013-03-04 18:18:00,
2013-03-04 12:23:00,85.5,44.6,29.83,ESE,113,5.0,12.0,24,0.00,,,0.00,meteohub,2013-03-04 18:23:00,
2013-03-04 12:28:00,86.0,45.0,29.83,East,90,6.0,12.0,24,0.00,,,0.00,meteohub,2013-03-04 18:28:00,
2013-03-04 12:29:00,86.4,45.3,29.82,SE,135,8.0,12.0,24,0.00,,,0.00,meteohub,2013-03-04 18:29:00,
2013-03-04 12:30:00,86.4,45.3,29.82,SE,135,8.0,12.0,24,0.00,,,0.00,meteohub,2013-03-04 18:30:00,
2013-03-04 12:35:00,87.6,45.3,29.82,East,90,5.0,9.0,23,0.00,,,0.00,meteohub,2013-03-04 18:35:00,
2013-03-04 12:40:00,88.2,43.3,29.81,NE,45,3.0,9.0,21,0.00,,,0.00,meteohub,2013-03-04 18:40:00,
2013-03-04 12:46:00,88.2,42.1,29.81,SE,135,4.0,10.0,20,0.00,,,0.00,meteohub,2013-03-04 18:46:00,
2013-03-04 12:51:00,87.6,42.8,29.81,South,180,5.0,11.0,21,0.00,,,0.00,meteohub,2013-03-04 18:51:00,
2013-03-04 12:56:00,88.2,40.6,29.81,North,0,4.0,11.0,19,0.00,,,0.00,meteohub,2013-03-04 18:56:00,
2013-03-04 13:01:00,88.7,42.4,29.81,SE,135,5.0,14.0,20,0.00,,,0.00,meteohub,2013-03-04 19:01:00,
2013-03-04 13:06:00,90.7,42.8,29.80,SW,225,3.0,14.0,19,0.00,,,0.00,meteohub,2013-03-04 19:06:00,
2013-03-04 13:11:00,91.0,40.1,29.80,SW,225,4.0,9.0,17,0.00,,,0.00,meteohub,2013-03-04 19:11:00,
2013-03-04 13:16:00,91.9,39.4,29.79,East,90,10.0,10.0,16,0.00,,,0.00,meteohub,2013-03-04 19:16:00,
2013-03-04 13:21:00,91.0,41.7,29.79,East,90,7.0,11.0,18,0.00,,,0.00,meteohub,2013-03-04 19:21:00,
2013-03-04 13:26:00,91.6,37.4,29.79,East,90,6.0,11.0,15,0.00,,,0.00,meteohub,2013-03-04 19:26:00,
2013-03-04 13:31:00,93.2,36.9,29.78,SW,225,4.0,11.0,14,0.00,,,0.00,meteohub,2013-03-04 19:31:00,
2013-03-04 13:36:00,92.5,38.1,29.78,SE,135,5.0,10.0,15,0.00,,,0.00,meteohub,2013-03-04 19:36:00,
2013-03-04 13:41:00,92.1,37.8,29.78,NE,45,4.0,10.0,15,0.00,,,0.00,meteohub,2013-03-04 19:41:00,
2013-03-04 13:46:00,90.9,36.9,29.78,SW,225,5.0,10.0,15,0.00,,,0.00,meteohub,2013-03-04 19:46:00,
2013-03-04 13:51:00,91.2,37.0,29.78,SE,135,5.0,10.0,15,0.00,,,0.00,meteohub,2013-03-04 19:51:00,
2013-03-04 13:56:00,90.0,36.1,29.77,WNW,293,4.0,10.0,15,0.00,,,0.00,meteohub,2013-03-04 19:56:00,
2013-03-04 14:01:00,90.0,36.1,29.76,ESE,113,9.0,10.0,15,0.00,,,0.00,meteohub,2013-03-04 20:01:00,
2013-03-04 14:06:00,90.0,36.1,29.77,ESE,113,9.0,9.0,15,0.00,,,0.00,meteohub,2013-03-04 20:06:00,
2013-03-04 14:11:00,90.1,36.3,29.76,SE,135,6.0,9.0,15,0.00,,,0.00,meteohub,2013-03-04 20:11:00,
2013-03-04 14:16:00,89.8,36.0,29.76,SE,135,5.0,9.0,15,0.00,,,0.00,meteohub,2013-03-04 20:16:00,
2013-03-04 14:22:00,89.6,35.8,29.76,East,90,4.0,9.0,15,0.00,,,0.00,meteohub,2013-03-04 20:22:00,
2013-03-04 14:27:00,88.5,35.1,29.75,East,90,4.0,7.0,15,0.00,,,0.00,meteohub,2013-03-04 20:27:00,
2013-03-04 14:32:00,88.2,36.3,29.75,SE,135,4.0,8.0,16,0.00,,,0.00,meteohub,2013-03-04 20:32:00,
2013-03-04 14:37:00,88.3,36.5,29.75,SE,135,4.0,8.0,16,0.00,,,0.00,meteohub,2013-03-04 20:37:00,
2013-03-04 14:42:00,88.0,37.8,29.75,SE,135,5.0,8.0,17,0.00,,,0.00,meteohub,2013-03-04 20:42:00,
2013-03-04 14:47:00,87.6,38.8,29.75,SE,135,7.0,8.0,18,0.00,,,0.00,meteohub,2013-03-04 20:47:00,
2013-03-04 14:52:00,87.6,38.8,29.75,East,90,6.0,9.0,18,0.00,,,0.00,meteohub,2013-03-04 20:52:00,
2013-03-04 14:57:00,88.0,39.2,29.75,SE,135,5.0,9.0,18,0.00,,,0.00,meteohub,2013-03-04 20:57:00,
2013-03-04 15:02:00,88.0,37.8,29.75,East,90,7.0,9.0,17,0.00,,,0.00,meteohub,2013-03-04 21:02:00,
2013-03-04 15:07:00,88.0,39.2,29.75,SE,135,4.0,11.0,18,0.00,,,0.00,meteohub,2013-03-04 21:07:00,
2013-03-04 15:12:00,88.2,39.4,29.75,ENE,68,4.0,11.0,18,0.00,,,0.00,meteohub,2013-03-04 21:12:00,
2013-03-04 15:17:00,88.0,37.8,29.75,SE,135,6.0,11.0,17,0.00,,,0.00,meteohub,2013-03-04 21:17:00,
2013-03-04 15:22:00,88.2,37.9,29.75,South,180,4.0,7.0,17,0.00,,,0.00,meteohub,2013-03-04 21:22:00,
2013-03-04 15:27:00,88.3,37.9,29.75,East,90,5.0,7.0,17,0.00,,,0.00,meteohub,2013-03-04 21:27:00,
2013-03-04 15:32:00,89.8,39.2,29.74,NE,45,3.0,7.0,17,0.00,,,0.00,meteohub,2013-03-04 21:32:00,
2013-03-04 15:37:00,91.9,37.8,29.74,NE,45,5.0,6.0,15,0.00,,,0.00,meteohub,2013-03-04 21:37:00,
2013-03-04 15:42:00,91.2,37.0,29.74,NE,45,3.0,8.0,15,0.00,,,0.00,meteohub,2013-03-04 21:42:00,
2013-03-04 15:47:00,90.7,36.7,29.74,SE,135,5.0,8.0,15,0.00,,,0.00,meteohub,2013-03-04 21:47:00,
2013-03-04 15:52:00,89.4,37.4,29.74,East,90,8.0,9.0,16,0.00,,,0.00,meteohub,2013-03-04 21:52:00,
2013-03-04 15:57:00,88.9,36.9,29.74,SE,135,9.0,9.0,16,0.00,,,0.00,meteohub,2013-03-04 21:57:00,
2013-03-04 16:02:00,88.9,36.9,29.74,East,90,8.0,9.0,16,0.00,,,0.00,meteohub,2013-03-04 22:02:00,
2013-03-04 16:07:00,88.9,36.9,29.74,East,90,8.0,9.0,16,0.00,,,0.00,meteohub,2013-03-04 22:07:00,
2013-03-04 16:12:00,91.0,37.0,29.73,NE,45,6.0,9.0,15,0.00,,,0.00,meteohub,2013-03-04 22:12:00,
2013-03-04 16:17:00,91.2,37.0,29.73,SE,135,8.0,8.0,15,0.00,,,0.00,meteohub,2013-03-04 22:17:00,
2013-03-04 16:22:00,90.0,32.5,29.73,East,90,8.0,11.0,13,0.00,,,0.00,meteohub,2013-03-04 22:22:00,
2013-03-04 16:27:00,88.9,35.2,29.73,East,90,4.0,14.0,15,0.00,,,0.00,meteohub,2013-03-04 22:27:00,
2013-03-04 16:32:00,89.2,37.2,29.73,NE,45,6.0,14.0,16,0.00,,,0.00,meteohub,2013-03-04 22:32:00,
2013-03-04 16:37:00,89.2,37.2,29.73,East,90,8.0,14.0,16,0.00,,,0.00,meteohub,2013-03-04 22:37:00,
2013-03-04 16:42:00,89.2,35.6,29.73,South,180,7.0,8.0,15,0.00,,,0.00,meteohub,2013-03-04 22:42:00,
2013-03-04 16:47:00,88.7,35.1,29.73,ESE,113,7.0,8.0,15,0.00,,,0.00,meteohub,2013-03-04 22:47:00,
2013-03-04 16:52:00,88.3,37.9,29.73,East,90,6.0,9.0,17,0.00,,,0.00,meteohub,2013-03-04 22:52:00,
2013-03-04 16:57:00,87.8,37.6,29.73,NE,45,8.0,9.0,17,0.00,,,0.00,meteohub,2013-03-04 22:57:00,
2013-03-04 17:02:00,87.6,38.8,29.72,ENE,68,7.0,9.0,18,0.00,,,0.00,meteohub,2013-03-04 23:02:00,
2013-03-04 17:07:00,87.6,38.8,29.73,East,90,4.0,8.0,18,0.00,,,0.00,meteohub,2013-03-04 23:07:00,
2013-03-04 17:13:00,88.9,36.9,29.73,NE,45,8.0,8.0,16,0.00,,,0.00,meteohub,2013-03-04 23:13:00,
2013-03-04 17:18:00,89.2,37.2,29.73,South,180,8.0,9.0,16,0.00,,,0.00,meteohub,2013-03-04 23:18:00,
2013-03-04 17:23:00,89.4,37.4,29.72,East,90,10.0,10.0,16,0.00,,,0.00,meteohub,2013-03-04 23:23:00,
2013-03-04 17:28:00,89.1,37.0,29.73,South,180,8.0,10.0,16,0.00,,,0.00,meteohub,2013-03-04 23:28:00,
2013-03-04 17:33:00,88.5,36.7,29.73,SE,135,6.0,10.0,16,0.00,,,0.00,meteohub,2013-03-04 23:33:00,
2013-03-04 17:38:00,87.3,37.2,29.73,East,90,5.0,10.0,17,0.00,,,0.00,meteohub,2013-03-04 23:38:00,
2013-03-04 17:43:00,86.4,36.3,29.73,NE,45,10.0,11.0,17,0.00,,,0.00,meteohub,2013-03-04 23:43:00,
2013-03-04 17:48:00,85.8,37.4,29.73,East,90,8.0,11.0,18,0.00,,,0.00,meteohub,2013-03-04 23:48:00,
2013-03-04 17:53:00,85.5,37.0,29.73,East,90,6.0,11.0,18,0.00,,,0.00,meteohub,2013-03-04 23:53:00,
2013-03-04 17:59:00,84.7,37.9,29.73,NE,45,5.0,10.0,19,0.00,,,0.00,meteohub,2013-03-04 23:59:00,
2013-03-04 18:04:00,84.7,37.9,29.73,East,90,5.0,8.0,19,0.00,,,0.00,meteohub,2013-03-05 00:04:00,
2013-03-04 18:09:00,83.5,43.0,29.74,ENE,68,5.0,8.0,24,0.00,,,0.00,meteohub,2013-03-05 00:09:00,
2013-03-04 18:14:00,82.9,43.5,29.73,NE,45,5.0,7.0,25,0.00,,,0.00,meteohub,2013-03-05 00:14:00,
2013-03-04 18:19:00,82.4,43.0,29.73,East,90,4.0,7.0,25,0.00,,,0.00,meteohub,2013-03-05 00:19:00,
2013-03-04 18:24:00,82.0,39.4,29.74,East,90,6.0,8.0,22,0.00,,,0.00,meteohub,2013-03-05 00:24:00,
2013-03-04 18:29:00,81.7,39.2,29.75,East,90,5.0,9.0,22,0.00,,,0.00,meteohub,2013-03-05 00:29:00,
2013-03-04 18:34:00,81.5,40.1,29.75,East,90,7.0,9.0,23,0.00,,,0.00,meteohub,2013-03-05 00:34:00,
2013-03-04 18:39:00,81.0,39.7,29.75,East,90,4.0,9.0,23,0.00,,,0.00,meteohub,2013-03-05 00:39:00,
2013-03-04 18:44:00,80.4,40.3,29.75,East,90,5.0,7.0,24,0.00,,,0.00,meteohub,2013-03-05 00:44:00,
2013-03-04 18:49:00,80.1,40.1,29.74,East,90,4.0,7.0,24,0.00,,,0.00,meteohub,2013-03-05 00:49:00,
2013-03-04 18:51:00,79.9,39.9,29.74,East,90,7.0,7.0,24,0.00,,,0.00,meteohub,2013-03-05 00:51:00,
2013-03-04 18:57:00,79.5,39.6,29.74,NE,45,4.0,7.0,24,0.00,,,0.00,meteohub,2013-03-05 00:57:00,
2013-03-04 19:02:00,79.2,40.3,29.75,East,90,4.0,7.0,25,0.00,,,0.00,meteohub,2013-03-05 01:02:00,
2013-03-04 19:07:00,78.8,39.9,29.74,NE,45,4.0,7.0,25,0.00,,,0.00,meteohub,2013-03-05 01:07:00,
2013-03-04 19:12:00,78.4,40.6,29.74,East,90,3.0,6.0,26,0.00,,,0.00,meteohub,2013-03-05 01:12:00,
2013-03-04 19:17:00,77.9,40.3,29.74,NE,45,4.0,5.0,26,0.00,,,0.00,meteohub,2013-03-05 01:17:00,
2013-03-04 19:22:00,77.7,41.0,29.74,East,90,5.0,6.0,27,0.00,,,0.00,meteohub,2013-03-05 01:22:00,
2013-03-04 19:27:00,77.5,41.0,29.74,ESE,113,5.0,6.0,27,0.00,,,0.00,meteohub,2013-03-05 01:27:00,
2013-03-04 19:32:00,77.4,39.7,29.74,East,90,10.0,10.0,26,0.00,,,0.00,meteohub,2013-03-05 01:32:00,
2013-03-04 19:37:00,77.7,40.1,29.75,ENE,68,6.0,10.0,26,0.00,,,0.00,meteohub,2013-03-05 01:37:00,
2013-03-04 19:42:00,77.9,40.3,29.75,East,90,8.0,10.0,26,0.00,,,0.00,meteohub,2013-03-05 01:42:00,
2013-03-04 19:47:00,78.3,39.6,29.75,East,90,11.0,11.0,25,0.00,,,0.00,meteohub,2013-03-05 01:47:00,
2013-03-04 19:52:00,78.4,39.7,29.75,East,90,9.0,11.0,25,0.00,,,0.00,meteohub,2013-03-05 01:52:00,
2013-03-04 19:57:00,78.6,39.9,29.75,ESE,113,10.0,11.0,25,0.00,,,0.00,meteohub,2013-03-05 01:57:00,
2013-03-04 20:02:00,78.6,39.9,29.75,South,180,8.0,11.0,25,0.00,,,0.00,meteohub,2013-03-05 02:02:00,
2013-03-04 20:07:00,78.6,39.9,29.75,South,180,8.0,11.0,25,0.00,,,0.00,meteohub,2013-03-05 02:07:00,
2013-03-04 20:12:00,78.4,39.7,29.75,NE,45,7.0,10.0,25,0.00,,,0.00,meteohub,2013-03-05 02:12:00,
2013-03-04 20:17:00,78.3,39.6,29.75,East,90,5.0,10.0,25,0.00,,,0.00,meteohub,2013-03-05 02:17:00,
2013-03-04 20:22:00,77.7,39.0,29.76,NE,45,6.0,10.0,25,0.00,,,0.00,meteohub,2013-03-05 02:22:00,
2013-03-04 20:27:00,77.7,39.0,29.76,East,90,8.0,10.0,25,0.00,,,0.00,meteohub,2013-03-05 02:27:00,
2013-03-04 20:32:00,77.5,39.0,29.75,NE,45,7.0,9.0,25,0.00,,,0.00,meteohub,2013-03-05 02:32:00,
2013-03-04 20:37:00,77.5,39.0,29.76,East,90,9.0,9.0,25,0.00,,,0.00,meteohub,2013-03-05 02:37:00,
2013-03-04 20:42:00,77.5,39.0,29.76,NE,45,7.0,10.0,25,0.00,,,0.00,meteohub,2013-03-05 02:42:00,
2013-03-04 20:47:00,77.2,38.7,29.77,East,90,11.0,11.0,25,0.00,,,0.00,meteohub,2013-03-05 02:47:00,
2013-03-04 20:52:00,77.2,38.7,29.77,East,90,4.0,11.0,25,0.00,,,0.00,meteohub,2013-03-05 02:52:00,
2013-03-04 20:57:00,77.0,38.5,29.76,East,90,5.0,11.0,25,0.00,,,0.00,meteohub,2013-03-05 02:57:00,
2013-03-04 21:02:00,77.0,38.5,29.76,East,90,8.0,11.0,25,0.00,,,0.00,meteohub,2013-03-05 03:02:00,
2013-03-04 21:07:00,77.2,38.7,29.77,East,90,7.0,9.0,25,0.00,,,0.00,meteohub,2013-03-05 03:07:00,
2013-03-04 21:12:00,77.4,37.8,29.77,NE,45,6.0,10.0,24,0.00,,,0.00,meteohub,2013-03-05 03:12:00,
2013-03-04 21:17:00,77.4,37.8,29.77,South,180,4.0,10.0,24,0.00,,,0.00,meteohub,2013-03-05 03:17:00,
2013-03-04 21:22:00,77.2,37.6,29.77,SE,135,5.0,8.0,24,0.00,,,0.00,meteohub,2013-03-05 03:22:00,
2013-03-04 21:28:00,77.0,37.4,29.77,East,90,7.0,10.0,24,0.00,,,0.00,meteohub,2013-03-05 03:28:00,
2013-03-04 21:33:00,76.6,39.2,29.77,East,90,6.0,10.0,26,0.00,,,0.00,meteohub,2013-03-05 03:33:00,
2013-03-04 21:38:00,76.6,39.2,29.77,East,90,10.0,11.0,26,0.00,,,0.00,meteohub,2013-03-05 03:38:00,
2013-03-04 21:43:00,76.8,38.3,29.77,East,90,9.0,12.0,25,0.00,,,0.00,meteohub,2013-03-05 03:43:00,
2013-03-04 21:48:00,77.0,37.4,29.77,East,90,8.0,12.0,24,0.00,,,0.00,meteohub,2013-03-05 03:48:00,
2013-03-04 21:53:00,77.0,37.4,29.78,East,90,8.0,12.0,24,0.00,,,0.00,meteohub,2013-03-05 03:53:00,
2013-03-04 21:58:00,77.0,37.4,29.78,East,90,8.0,11.0,24,0.00,,,0.00,meteohub,2013-03-05 03:58:00,
2013-03-04 22:03:00,77.0,37.4,29.77,NE,45,9.0,11.0,24,0.00,,,0.00,meteohub,2013-03-05 04:03:00,
2013-03-04 22:08:00,76.3,37.9,29.78,NE,45,7.0,11.0,25,0.00,,,0.00,meteohub,2013-03-05 04:08:00,
2013-03-04 22:13:00,76.1,38.7,29.78,SE,135,11.0,11.0,26,0.00,,,0.00,meteohub,2013-03-05 04:13:00,
2013-03-04 22:18:00,75.9,37.6,29.78,East,90,6.0,11.0,25,0.00,,,0.00,meteohub,2013-03-05 04:18:00,
2013-03-04 22:23:00,75.9,37.6,29.78,East,90,8.0,11.0,25,0.00,,,0.00,meteohub,2013-03-05 04:23:00,
2013-03-04 22:28:00,75.7,37.4,29.78,East,90,10.0,11.0,25,0.00,,,0.00,meteohub,2013-03-05 04:28:00,
2013-03-04 22:33:00,75.6,37.2,29.78,East,90,8.0,10.0,25,0.00,,,0.00,meteohub,2013-03-05 04:33:00,
2013-03-04 22:38:00,75.2,37.9,29.78,SE,135,6.0,10.0,26,0.00,,,0.00,meteohub,2013-03-05 04:38:00,
2013-03-04 22:43:00,75.2,37.0,29.78,SSE,158,9.0,11.0,25,0.00,,,0.00,meteohub,2013-03-05 04:43:00,
2013-03-04 22:48:00,75.7,37.4,29.78,East,90,8.0,11.0,25,0.00,,,0.00,meteohub,2013-03-05 04:48:00,
2013-03-04 22:54:00,75.4,37.0,29.78,SE,135,7.0,12.0,25,0.00,,,0.00,meteohub,2013-03-05 04:54:00,
2013-03-04 22:59:00,74.8,38.7,29.78,East,90,10.0,12.0,27,0.00,,,0.00,meteohub,2013-03-05 04:59:00,
2013-03-04 23:00:00,74.8,38.7,29.78,East,90,6.0,11.0,27,0.00,,,0.00,meteohub,2013-03-05 05:00:00,
2013-03-04 23:01:00,74.8,38.7,29.78,East,90,8.0,11.0,27,0.00,,,0.00,meteohub,2013-03-05 05:01:00,
2013-03-04 23:06:00,74.5,38.3,29.78,East,90,10.0,11.0,27,0.00,,,0.00,meteohub,2013-03-05 05:06:00,
2013-03-04 23:11:00,74.3,38.1,29.78,SE,135,11.0,11.0,27,0.00,,,0.00,meteohub,2013-03-05 05:11:00,
2013-03-04 23:16:00,73.9,37.8,29.78,South,180,8.0,11.0,27,0.00,,,0.00,meteohub,2013-03-05 05:16:00,
2013-03-04 23:21:00,73.8,39.6,29.78,NE,45,9.0,11.0,29,0.00,,,0.00,meteohub,2013-03-05 05:21:00,
2013-03-04 23:26:00,73.6,42.6,29.78,SE,135,11.0,11.0,33,0.00,,,0.00,meteohub,2013-03-05 05:26:00,
2013-03-04 23:31:00,73.6,45.0,29.78,NE,45,10.0,13.0,36,0.00,,,0.00,meteohub,2013-03-05 05:31:00,
2013-03-04 23:36:00,73.4,44.8,29.78,East,90,6.0,13.0,36,0.00,,,0.00,meteohub,2013-03-05 05:36:00,
2013-03-04 23:41:00,72.9,43.5,29.78,East,90,6.0,13.0,35,0.00,,,0.00,meteohub,2013-03-05 05:41:00,
2013-03-04 23:46:00,72.5,43.3,29.78,NE,45,7.0,11.0,35,0.00,,,0.00,meteohub,2013-03-05 05:46:00,
2013-03-04 23:51:00,72.5,43.3,29.78,SE,135,9.0,10.0,35,0.00,,,0.00,meteohub,2013-03-05 05:51:00,
2013-03-04 23:56:00,72.5,43.3,29.78,East,90,13.0,13.0,35,0.00,,,0.00,meteohub,2013-03-05 05:56:00,